Zurück zum Katalog

STARLINK-36576

AktivKommunikationSSO
NORAD 67534·PAYLOAD·🇺🇸 United States

Gestartet Jan 22, 2026 von Vandenberg Space Force Base

Loading…

Nächste Überflüge (nächste 24 Stunden)

TLE

AktuellSource: CelesTrak SupGP

Epoche: Sep 14, 2026, 22:50 UTC

1 67534C 26014C   26257.95187500  .00029403  00000+0  91306-3 0  2571
2 67534  97.2846 143.3686 0002005  94.2499 358.5477 15.33412296    14

Verfolge STARLINK-36576 in Echtzeit mit AllMySat

Download on the App Store